#timestamp,LO_Frequency,Hit,StdDev 
1508212815.3,286047003.3,N
1508212835.2,286047007.2,N
1508212855.9,286047004.5,N
1508212875.7,286047007.3,N
1508212895.5,286047008.8,N
1508212915.4,286047008.0,N
1508212935.2,286047009.9,N
1508212955.0,286047013.9,Y
1508212956.0,286047013.9,P
1508212975.8,286047014.4,N
1508212995.6,286047014.6,N
1508213015.5,286047013.9,N
1508213035.3,286047014.9,Y
1508213055.1,286047003.9,P
1508213075.9,286047004.4,N
1508213095.7,286047000.5,N
1508213115.5,286047002.4,N
1508213135.3,286047003.3,N
1508213155.2,286046998.6,N
1508213175.0,286047000.9,N
1508213175.9,286047000.9,N
1508213195.7,286046999.3,N
1508213215.6,286046998.5,N
1508213235.4,286046999.3,N
1508213255.2,286046999.2,N
1508213275.1,286047002.5,N
1508213276.0,286047002.5,N
1508213295.8,286046998.9,N
1508213315.6,286046996.5,N
1508213335.5,286046999.1,N
1508213355.3,286046998.8,N
1508213375.1,286046997.1,N
1508213395.9,286046996.7,N
1508213415.7,286046996.1,N
1508213435.5,286046997.7,N
1508213455.4,286046999.4,N
1508213475.2,286046995.2,N
1508213495.0,286046999.1,N
1508213495.9,286046999.1,N
1508213515.8,286046999.3,N
1508213535.6,286046993.9,N
1508213555.4,286046997.8,N
1508213575.2,286046999.3,N
1508213595.1,286046997.9,N
1508213596.0,286046997.9,N
1508213615.8,286046995.1,N
1508213635.6,286046993.9,N
1508213655.5,286046996.3,N
1508213675.3,286046992.2,Y
1508213695.2,286046992.0,P
1508213715.9,286046993.1,N
1508213735.7,286046990.4,P
1508213755.5,286046992.4,N
1508213775.4,286046993.7,N
1508213795.2,286046993.9,N
1508213815.0,286046994.7,N
1508213815.9,286046994.7,N
1508213835.8,286046990.8,Y
1508213855.6,286046991.8,P
1508213875.4,286046992.3,P
1508213895.3,286046992.2,P
1508213915.1,286046992.6,Y
1508213935.9,286047000.1,P
1508213955.7,286046999.8,N
1508213975.5,286046999.9,N
1508213995.3,286047002.7,N
1508214015.2,286046999.9,N
1508214035.0,286046999.9,N
1508214035.9,286046999.9,N
1508214055.7,286046998.2,N
1508214075.6,286046998.5,N
1508214095.4,286046998.6,N
1508214115.2,286046999.9,N
1508214135.1,286046999.8,N
1508214136.0,286046999.8,N
1508214155.8,286047002.3,N
1508214175.6,286046999.9,N
1508214195.5,286047000.3,N
1508214215.3,286046999.3,N
1508214235.1,286046998.7,N
1508214255.9,286046999.5,N
1508214275.7,286046997.6,N
1508214295.5,286046999.1,N
1508214315.4,286046997.5,N
1508214335.2,286046997.9,N
1508214355.0,286046999.6,N
1508214355.9,286046999.6,N
1508214375.7,286047001.9,N
1508214395.6,286047004.3,N
1508214415.4,286047003.9,N
1508214435.2,286047003.0,N
1508214455.1,286047001.4,N
1508214456.0,286047001.4,N
1508214475.8,286047002.6,N
1508214495.6,286047001.9,N
1508214515.5,286047001.7,N
1508214535.3,286047003.3,N
1508214555.1,286047003.2,N
1508214575.9,286047001.6,N
1508214595.7,286047001.1,N
1508214615.5,286047002.2,N
1508214635.4,286047001.6,N
1508214655.2,286047005.3,N
1508214675.0,286047006.3,Y
1508214675.9,286047006.3,P
1508214695.8,286047004.5,N
1508214715.6,286047007.7,P
1508214735.4,286047009.6,Y
1508214755.3,286047007.3,P
1508214775.1,286047008.5,P
1508214795.8,286047012.9,P
1508214815.7,286047013.8,Y
1508214835.5,286047003.4,P
1508214855.3,286046998.9,N
1508214875.2,286047001.0,N
1508214895.9,286046998.6,N
1508214915.7,286046999.4,N
1508214935.6,286046998.7,N
1508214955.4,286046998.2,N
1508214975.2,286046998.9,N
1508214995.1,286046997.5,N
1508214996.0,286046997.5,N
1508215015.8,286046999.4,N
1508215035.6,286047000.9,N
1508215055.5,286046998.1,N
1508215075.3,286046999.2,N
1508215095.1,286046998.7,N
1508215115.9,286046998.9,N
1508215135.7,286047001.8,N
1508215155.5,286047000.8,N
1508215175.3,286046995.0,N
1508215195.2,286046997.8,N
1508215215.0,286046994.9,N
1508215215.9,286046994.9,N
1508215235.7,286046997.3,N
1508215255.6,286046995.0,N
1508215275.4,286046997.5,N
1508215295.2,286046993.7,N
1508215315.1,286046992.4,N
1508215316.0,286046992.4,N
1508215335.8,286046992.3,N
1508215355.6,286046994.1,N
1508215375.5,286046993.8,N
1508215395.3,286046997.4,N
1508215415.1,286046997.7,N
1508215435.9,286047000.3,N
1508215455.7,286047001.2,N
1508215475.5,286046998.0,N
1508215495.4,286046995.8,N
1508215515.2,286046993.6,N
1508215535.0,286046997.2,N
1508215535.9,286046997.2,N
1508215555.8,286046997.0,N
1508215575.6,286046998.0,N
1508215595.4,286046994.3,N
1508215615.2,286046993.0,N
1508215635.1,286046994.6,N
1508215636.0,286046994.6,N
1508215655.8,286046996.1,N
1508215675.6,286046993.8,N
1508215695.5,286046993.1,Y
1508215715.3,286046994.5,P
1508215735.1,286046992.5,P
1508215755.9,286046990.6,P
1508215775.7,286046991.8,Y
1508215795.6,286046996.9,P
1508215815.4,286046996.9,N
1508215835.2,286046999.7,N
1508215855.0,286047000.3,N
1508215855.9,286047000.3,N
1508215875.8,286047000.9,N
1508215895.6,286047000.5,N
1508215915.4,286047002.0,N
1508215935.3,286047001.6,N
1508215955.1,286046999.7,N
1508215975.8,286047000.6,N
1508215995.7,286047001.0,N
1508216015.5,286046998.1,N
1508216035.3,286047002.4,N
1508216055.2,286047002.8,N
1508216075.9,286047000.0,N
1508216095.7,286047001.9,N
1508216115.6,286047000.6,N
1508216135.4,286046999.7,N
1508216155.2,286047002.0,N
1508216175.0,286047000.2,N
1508216176.0,286047000.2,N
1508216195.8,286047001.2,N
1508216215.6,286046997.3,N
1508216235.4,286046997.8,N
1508216255.3,286046997.0,N
1508216275.1,286046998.8,N
1508216295.8,286046998.7,N
1508216315.7,286047001.1,N
1508216335.5,286046998.9,N
1508216355.3,286046998.7,N
1508216375.2,286046998.4,N
1508216395.9,286046998.4,N
